FW2254 Weather Reports


Display with metric or nautical units.
time (UTC)temp
F
wind
direction
speed
MPH
gust
MPH
rain 1hr
in
rain 24hr
in
rain mn
in
humidity
%
barometer
mb
20260902173043 94 17 2.0 5.0 0.00 0.00 0.00 59 1012.1
20260902171543 92 17 1.0 5.0 0.00 0.00 0.00 62 1012.4
20260902170041 93 17 1.0 5.0 0.00 0.00 0.00 60 1012.9
20260902164543 90 17 1.0 6.0 0.00 0.00 0.00 65 1013.0
20260902163133 91 17 0.0 5.0 0.00 0.00 0.00 68 1013.0
20260902161534 89 17 0.0 9.0 0.00 0.00 0.00 70 1013.1
20260902160028 88 15 1.0 5.0 0.00 0.00 0.00 72 1013.2
20260902154529 88 15 1.0 3.0 0.00 0.00 0.00 72 1013.1
20260902153030 87 15 0.0 4.0 0.00 0.00 0.00 74 1013.0
20260902151519 86 15 0.0 3.0 0.00 0.00 0.00 76 1013.1
20260902150020 85 15 0.0 3.0 0.00 0.00 0.00 78 1013.0
20260902144514 84 15 0.0 3.0 0.00 0.00 0.00 80 1013.1
20260902143014 83 15 0.0 3.0 0.00 0.00 0.00 82 1013.1
20260902141517 82 15 0.0 3.0 0.00 0.00 0.00 84 1013.3
20260902140010 81 15 0.0 2.0 0.00 0.00 0.00 85 1013.2
20260902134508 80 15 0.0 2.0 0.00 0.00 0.00 87 1013.0
20260902133009 79 15 0.0 3.0 0.00 0.00 0.00 89 1013.1
20260902131504 78 15 0.0 2.0 0.00 0.00 0.00 90 1013.0
20260902130012 77 15 0.0 1.0 0.00 0.00 0.00 91 1013.0
20260902124503 76 15 0.0 1.0 0.00 0.00 0.00 91 1012.9
20260902123005 76 15 0.0 0.0 0.00 0.00 0.00 91 1012.8
20260902121608 75 15 0.0 0.0 0.00 0.00 0.00 91 1012.8
20260902120057 76 15 0.0 0.0 0.00 0.00 0.00 90 1012.8
20260902114556 76 15 0.0 0.0 0.00 0.00 0.00 90 1012.7
20260902113103 76 15 0.0 0.0 0.00 0.00 0.00 89 1012.7
20260902111552 76 15 0.0 0.0 0.00 0.00 0.00 89 1012.5
20260902110050 76 15 0.0 0.0 0.00 0.00 0.00 88 1012.5
20260902104603 77 15 0.0 0.0 0.00 0.00 0.00 87 1012.5
20260902103058 77 15 0.0 0.0 0.00 0.00 0.00 87 1012.6
20260902101550 77 15 0.0 0.0 0.00 0.00 0.00 86 1012.5
20260902100043 78 15 0.0 0.0 0.00 0.00 0.00 85 1012.4
20260902094541 78 15 0.0 0.0 0.00 0.00 0.00 85 1012.4
20260902093043 78 15 0.0 0.0 0.00 0.00 0.00 84 1012.3
20260902091507 78 15 0.0 0.0 0.00 0.00 0.00 83 1012.2
20260902090008 79 15 0.0 0.0 0.00 0.00 0.00 83 1012.3
20260902084503 79 15 0.0 1.0 0.00 0.00 0.00 82 1012.2
20260902083002 80 15 0.0 1.0 0.00 0.00 0.00 82 1012.3
20260902081502 80 15 0.0 1.0 0.00 0.00 0.00 82 1012.4
20260902080002 80 15 0.0 2.0 0.00 0.00 0.00 81 1012.3
20260902074621 79 15 0.0 1.0 0.00 0.00 0.00 81 1012.6
20260902073058 80 15 0.0 0.0 0.00 0.00 0.00 81 1012.5
20260902071556 80 15 0.0 1.0 0.00 0.00 0.00 80 1012.5
20260902070054 80 15 0.0 0.0 0.00 0.00 0.00 80 1012.5
20260902064554 81 15 0.0 0.0 0.00 0.00 0.00 78 1012.7
20260902063049 81 15 0.0 0.0 0.00 0.00 0.00 78 1012.6
20260902061553 81 15 0.0 0.0 0.00 0.00 0.00 77 1012.5
20260902060050 82 15 0.0 1.0 0.00 0.00 0.00 77 1012.6
20260902054545 82 15 0.0 0.0 0.00 0.00 0.00 76 1012.6
20260902053013 82 15 0.0 1.0 0.00 0.00 0.00 75 1012.6
20260902051511 83 15 0.0 0.0 0.00 0.00 0.00 74 1012.6
20260902050008 83 15 0.0 0.0 0.00 0.00 0.00 74 1012.6
20260902044510 84 15 0.0 1.0 0.00 0.00 0.00 73 1012.6
20260902043002 84 15 0.0 0.0 0.00 0.00 0.00 73 1012.5
20260902041559 85 15 0.0 1.0 0.00 0.00 0.00 72 1012.3
20260902040056 85 15 0.0 2.0 0.00 0.00 0.00 71 1012.2
20260902034556 86 15 0.0 2.0 0.00 0.00 0.00 70 1012.4
20260902033055 86 15 0.0 3.0 0.00 0.00 0.00 70 1012.3
20260902031555 87 15 0.0 1.0 0.00 0.00 0.00 69 1012.3
20260902030052 87 15 0.0 2.0 0.00 0.00 0.00 68 1012.1
20260902024552 88 15 0.0 1.0 0.00 0.00 0.00 68 1011.8
20260902023100 88 15 0.0 3.0 0.00 0.00 0.00 67 1011.6
20260902021553 89 15 0.0 1.0 0.00 0.00 0.00 65 1011.3
20260902020047 89 15 1.0 2.0 0.00 0.00 0.00 63 1011.3
20260902014547 89 15 1.0 5.0 0.00 0.00 0.00 59 1010.9
20260902013047 90 15 0.0 1.0 0.00 0.00 0.00 56 1010.6
20260902011603 91 15 0.0 1.0 0.00 0.00 0.00 54 1010.5
20260902010024 92 15 0.0 1.0 0.00 0.00 0.00 53 1010.5
20260902004520 93 15 0.0 2.0 0.00 0.00 0.00 51 1010.3
20260902003046 94 15 0.0 5.0 0.00 0.00 0.00 50 1010.1
20260902001545 94 15 0.0 3.0 0.00 0.00 0.00 49 1010.0
20260902000044 95 15 0.0 2.0 0.00 0.00 0.00 49 1010.0
20260901234547 95 15 0.0 3.0 0.00 0.00 0.00 49 1009.8
20260901233042 96 15 1.0 3.0 0.00 0.00 0.00 47 1010.0
20260901231551 96 15 0.0 3.0 0.00 0.00 0.00 48 1009.9
20260901230040 96 15 0.0 3.0 0.00 0.00 0.00 49 1009.8
20260901224539 97 15 1.0 4.0 0.00 0.00 0.00 47 1010.1
20260901223039 97 15 0.0 5.0 0.00 0.00 0.00 48 1010.0
20260901221603 97 14 1.0 5.0 0.00 0.00 0.00 49 1010.0
20260901220005 97 14 0.0 4.0 0.00 0.00 0.00 48 1010.2
20260901214503 98 14 1.0 5.0 0.00 0.00 0.00 49 1010.4
20260901213109 97 14 0.0 3.0 0.00 0.00 0.00 49 1010.5
20260901211600 98 14 1.0 4.0 0.00 0.00 0.00 50 1010.6
20260901210111 98 15 1.0 5.0 0.00 0.00 0.00 48 1010.8
20260901204610 99 15 1.0 3.0 0.00 0.00 0.00 47 1010.9
20260901203059 98 14 2.0 6.0 0.00 0.00 0.00 47 1011.0
20260901201556 99 14 0.0 3.0 0.00 0.00 0.00 46 1011.1
20260901200112 100 14 1.0 2.0 0.00 0.00 0.00 47 1011.3
20260901194556 100 14 1.0 8.0 0.00 0.00 0.00 47 1011.4
20260901193047 100 14 1.0 3.0 0.00 0.00 0.00 46 1011.5
20260901191612 98 14 0.0 3.0 0.00 0.00 0.00 49 1011.8
20260901190031 100 14 1.0 3.0 0.00 0.00 0.00 47 1012.0
20260901184528 99 14 1.0 3.0 0.00 0.00 0.00 49 1012.3
20260901183034 99 14 1.0 4.0 0.00 0.00 0.00 47 1012.6
20260901181523 98 14 0.0 3.0 0.00 0.00 0.00 52 1012.7
20260901180016 97 14 1.0 4.0 0.00 0.00 0.00 53 1013.1
20260901174514 94 14 0.0 3.0 0.00 0.00 0.00 57 1013.4